Temperature
11 11 11 12 12 12 12 12 12 12 13 14 15 15 16 16 16 16 16 16 16 16 16 16 16 16 16 16 16 16 16 16 16 16 16 16 16 16
11 11 11 11 11 11 11 12 12 12 12 13 14 15 15 15 16 16 16 16 16 16 16 16 16 16 16 16 16 16 16 16 16 16 16 16 16 16
10 10 11 11 11 11 11 11 11 11 12 12 13 14 14 15 15 15 16 16 16 16 16 16 16 16 16 16 16 16 16 16 16 16 16 16 16 16
10 10 10 10 10 11 11 11 11 11 11 12 12 13 13 14 14 15 15 15 15 15 15 15 15 16 16 16 16 16 16 16 16 16 16 16 16 16
9 9 10 10 10 10 10 10 11 11 11 11 12 12 12 13 13 14 14 14 15 15 15 15 15 15 15 16 16 16 16 16 16 16 16 16 16 16
8 9 9 9 9 10 10 10 10 10 10 11 11 11 12 12 12 13 13 13 14 14 14 15 15 15 15 15 15 15 15 15 15 16 16 16 16 16
8 8 8 9 9 9 9 10 10 10 10 10 10 11 11 11 12 12 12 12 13 13 13 14 14 14 15 15 15 15 15 15 15 15 15 15 16 15
8 8 8 8 8 9 9 9 9 10 10 10 10 10 11 11 11 11 12 12 11 12 12 13 13 14 14 14 15 15 15 15 15 15 15 15 15 15
7 8 8 8 8 8 8 9 9 9 9 10 10 10 11 11 11 11 11 11 12 12 12 12 12 13 13 14 14 14 14 14 14 14 14 15 15 15
7 7 7 7 7 8 8 8 9 9 9 9 9 10 10 10 11 11 11 11 11 11 12 12 12 12 12 13 13 13 13 14 14 14 14 14 14 14
7 7 7 7 7 7 7 7 8 8 9 9 9 9 10 10 10 10 10 11 11 11 11 11 11 12 12 12 12 13 13 13 13 13 13 13 13 13
7 7 7 7 7 7 7 7 8 8 8 9 9 9 9 9 10 10 10 10 10 10 11 11 11 11 11 11 12 12 12 12 13 13 13 13 13 13
7 7 7 7 7 7 7 7 7 8 8 8 9 9 9 9 9 10 10 10 10 11 11 11 11 11 11 11 11 11 11 12 12 12 12 12 12 12
6 7 6 6 6 6 6 7 7 7 8 8 8 9 9 9 9 10 10 10 10 11 11 11 11 12 12 11 11 11 11 11 11 12 12 12 12 12
6 6 6 6 6 6 6 7 7 7 7 8 8 9 9 9 9 9 9 10 10 10 10 11 11 11 11 12 12 11 11 11 11 11 11 11 11 11
6 6 6 6 6 6 6 6 7 7 7 8 8 8 8 9 9 9 9 9 9 10 10 10 10 11 11 11 11 12 12 11 11 11 11 11 11 11
6 6 6 6 6 6 6 6 7 7 7 7 8 8 8 8 9 9 9 9 9 9 10 10 10 10 10 11 11 11 11 11 11 11 11 11 11 10
6 6 6 6 6 6 6 6 7 7 7 7 8 8 8 8 8 9 9 9 9 9 9 10 10 10 10 10 10 11 11 11 11 11 11 11 10 10
6 6 6 6 6 6 6 6 7 7 7 7 7 8 8 8 8 8 9 9 9 9 9 9 10 10 10 10 10 10 11 11 10 10 10 10 11 10
6 6 6 6 6 6 6 7 7 7 7 7 7 8 8 8 8 8 8 9 9 9 9 9 9 10 10 10 10 10 10 10 11 11 10 10 10 10
6 6 6 6 6 6 6 7 7 7 7 8 8 8 8 8 8 8 8 8 9 9 9 9 9 10 10 10 10 10 10 10 10 11 11 10 9 9
6 6 6 6 6 6 7 7 7 7 7 8 8 8 8 8 8 8 8 8 8 9 9 9 9 9 9 9 9 10 10 9 9 9 10 10 10 10
7 7 6 6 6 7 7 7 7 7 8 8 8 8 8 8 8 8 8 8 8 8 8 8 8 9 9 9 9 9 9 9 9 9 9 9 9 9
Wind_Speed
7 7 6 5 5 5 4 4 3 3 3 2 1 0 1 3 5 8 9 14 16 17 17 17 17 17 18 18 18 18 18 18 19 19 19 19 19 19
6 7 7 6 5 5 5 4 4 4 3 2 1 1 1 1 3 5 6 11 14 15 15 14 15 15 15 15 15 15 14 14 14 15 15 15 16 16
7 7 8 7 6 5 5 4 5 4 5 3 2 1 1 2 3 5 6 7 8 12 13 13 13 13 13 13 13 13 13 13 12 12 12 12 13 13
9 9 9 7 8 6 6 6 5 5 4 4 2 1 1 3 4 5 5 6 7 11 12 12 12 12 12 12 12 11 11 11 11 11 10 11 11 10
10 10 10 9 9 8 8 7 6 5 4 4 3 1 1 3 4 4 6 5 6 9 11 11 11 12 12 11 11 10 10 10 10 10 9 8 8 7
10 10 11 10 11 10 9 9 8 6 5 5 4 3 2 3 4 5 5 4 5 6 8 9 11 12 11 11 11 11 10 10 9 9 8 7 6 6
10 10 11 13 14 12 9 9 9 7 6 6 5 4 3 4 5 4 6 6 4 4 6 5 6 6 7 9 10 10 11 10 10 9 9 8 7 6
11 10 11 13 14 15 17 15 13 11 9 7 6 6 6 5 5 6 6 6 5 5 5 4 4 5 5 6 9 11 11 11 11 10 10 10 9 8
11 10 10 11 11 10 13 16 16 16 14 10 9 8 7 7 7 8 8 8 5 8 7 5 4 4 4 6 10 11 11 11 12 12 12 11 11 10
12 12 12 12 11 10 10 11 12 13 14 11 9 9 8 7 8 8 8 6 5 7 6 5 5 4 4 5 9 11 11 12 12 13 13 13 13 13
11 12 12 13 13 13 11 11 11 10 11 13 11 10 10 10 8 7 8 8 6 5 4 5 5 4 4 3 6 10 11 12 13 13 14 14 15 14
9 10 13 14 14 14 12 11 12 10 9 10 9 9 9 9 10 9 9 9 6 5 6 6 6 5 4 3 4 6 8 10 13 13 14 14 13 11
8 8 9 13 15 15 13 11 12 10 9 9 8 7 6 6 8 8 8 8 8 5 8 7 6 6 5 5 4 4 6 6 8 9 11 12 11 9
9 8 8 11 14 14 12 11 12 10 7 7 7 7 7 7 7 7 7 7 5 5 11 10 6 7 7 6 5 5 5 6 7 7 8 10 9 9
8 10 10 11 10 9 11 11 10 8 8 8 8 8 7 7 6 5 5 5 5 6 12 9 8 9 7 6 7 7 6 5 7 7 7 7 7 7
7 7 9 8 7 6 6 8 8 8 8 8 8 6 5 5 6 6 6 6 5 4 7 10 10 12 6 6 8 8 8 8 9 8 7 6 6 6
4 3 3 4 5 5 5 6 7 7 8 7 6 6 6 6 5 6 6 6 6 6 6 5 6 6 6 8 7 9 10 7 9 9 7 6 5 6
4 4 4 5 6 7 7 6 6 7 7 7 7 7 7 7 6 6 6 7 7 7 7 7 8 5 4 2 4 10 9 8 9 10 8 7 7 6
4 5 5 6 6 6 7 7 7 7 7 7 7 7 7 7 7 7 7 7 7 8 8 9 9 8 8 6 5 7 10 9 10 9 8 6 7 7
5 5 5 5 6 6 7 7 6 7 7 7 7 7 7 7 7 7 8 8 8 7 8 8 10 9 8 8 6 6 12 12 11 11 8 5 4 6
6 5 5 5 5 6 6 6 7 7 8 7 7 8 7 7 7 8 7 9 9 8 10 9 9 10 6 7 7 5 7 11 12 10 10 8 6 6
5 5 5 5 5 5 5 6 6 6 8 7 7 8 8 8 9 9 8 8 8 8 9 8 10 10 7 8 8 8 8 8 8 12 13 7 7 9
6 5 5 5 5 6 6 7 7 7 7 7 7 8 8 8 8 8 8 8 7 9 9 9 9 7 7 8 9 8 12 11 8 8 5 2 4 6
Wind_Direction
248 247 244 245 240 240 244 241 244 260 260 263 267 266 236 216 201 194 193 188 186 186 187 189 192 195 199 202 206 209 212 214 214 216 219 220 223 225
247 245 247 246 240 238 237 235 228 236 249 268 281 302 255 148 144 165 170 163 169 171 173 176 180 185 190 192 196 199 200 200 202 206 210 215 221 226
255 246 247 244 240 237 234 233 228 223 243 262 260 298 239 148 125 127 131 137 143 148 154 160 167 173 178 181 184 187 189 191 194 198 204 210 217 223
257 250 250 246 238 236 230 230 229 222 226 251 256 248 223 171 151 134 127 126 125 132 138 144 150 157 162 165 169 174 179 184 189 194 200 206 211 218
254 250 250 243 240 234 228 228 228 226 219 233 246 225 214 166 153 133 127 120 119 124 123 128 135 140 144 148 152 159 167 173 179 184 188 194 199 205
254 251 249 242 239 234 229 227 223 221 217 221 228 224 209 178 166 158 150 138 130 122 116 117 121 122 128 133 138 144 150 154 158 161 164 166 170 177
255 253 252 248 242 235 229 221 215 215 213 215 217 216 209 190 185 172 163 146 131 136 131 127 124 120 120 124 129 135 141 144 146 147 148 148 149 151
256 254 254 257 254 244 235 222 209 207 207 208 211 215 215 207 194 179 166 163 166 156 145 139 136 130 124 125 130 133 136 138 139 139 138 135 133 131
251 250 254 252 244 243 239 230 219 213 203 200 209 213 210 206 195 191 183 178 167 159 150 146 141 135 124 121 131 133 135 136 137 135 133 128 124 121
247 244 246 251 246 238 238 233 225 220 214 210 213 213 211 205 203 198 182 156 129 154 153 148 149 140 129 123 132 135 136 136 135 133 131 127 122 116
249 244 241 244 240 230 231 230 227 225 220 212 208 209 206 201 195 187 176 168 165 168 162 142 143 132 129 130 127 133 137 138 137 136 134 131 126 116
253 247 239 237 234 225 224 222 223 220 210 205 207 209 210 207 197 199 189 182 168 168 168 147 146 147 141 133 135 137 133 134 135 135 136 137 135 123
251 248 241 232 230 224 218 220 219 209 204 199 198 199 200 202 201 202 196 189 180 170 165 151 152 155 142 141 146 152 149 144 138 135 137 139 139 133
248 248 243 231 227 222 218 219 212 200 199 196 195 197 199 202 201 195 195 193 185 166 166 160 155 161 146 145 152 155 154 154 152 145 140 136 125 121
246 245 240 231 223 221 220 210 198 198 193 194 198 200 201 198 186 178 176 173 160 158 166 169 158 161 155 151 152 158 158 168 167 155 151 154 153 148
250 249 240 229 216 211 204 201 198 197 194 195 196 193 181 177 179 172 169 169 164 164 172 173 168 163 159 150 154 163 165 166 170 166 156 155 159 165
248 236 220 208 204 202 198 193 191 191 196 193 184 179 176 175 177 172 167 168 175 172 166 162 154 150 149 152 157 164 161 159 165 162 160 162 172 179
225 224 219 212 206 201 197 192 190 191 192 185 179 178 176 176 174 172 173 176 179 174 171 161 150 137 122 91 143 161 163 160 160 163 162 166 175 182
219 231 222 213 206 201 197 192 194 193 186 183 182 181 176 174 173 175 180 182 184 177 172 166 166 169 172 172 165 169 164 158 158 164 170 169 176 177
226 231 226 215 205 201 198 195 191 185 183 184 185 183 179 177 179 179 183 187 184 180 174 174 180 183 185 170 158 170 171 162 163 166 164 148 126 129
230 229 226 219 208 201 196 192 189 187 185 183 183 182 182 183 186 184 183 187 187 184 184 187 184 162 131 124 127 137 164 172 165 162 160 155 155 162
234 230 224 218 209 202 196 192 188 186 184 186 185 184 186 189 191 187 181 183 191 190 187 173 160 160 162 169 160 150 150 152 144 148 155 154 167 178
235 227 219 214 210 201 197 195 194 192 188 186 185 185 186 189 190 187 183 185 187 182 173 167 166 171 172 166 156 151 153 152 150 149 150 82 157 158
Height
1483 1484 1484 1484 1484 1483 1483 1483 1484 1482 1481 1482 1484 1486 1488 1491 1495 1498 1502 1506 1510 1514 1518 1521 1525 1529 1532 1536 1539 1543 1546 1550 1553 1556 1559 1562 1564 1567
1477 1478 1478 1479 1479 1479 1479 1479 1479 1479 1478 1479 1480 1482 1485 1487 1490 1494 1498 1502 1506 1509 1513 1517 1520 1524 1528 1531 1534 1537 1541 1544 1548 1551 1554 1556 1559 1561
1471 1471 1472 1473 1473 1474 1474 1475 1475 1475 1475 1475 1477 1478 1480 1483 1486 1489 1493 1497 1501 1505 1509 1512 1516 1520 1523 1526 1529 1533 1536 1539 1543 1546 1548 1551 1553 1556
1464 1464 1465 1466 1467 1468 1469 1470 1470 1470 1471 1471 1473 1474 1476 1479 1482 1485 1489 1493 1497 1501 1505 1508 1512 1515 1518 1522 1525 1528 1531 1535 1538 1541 1543 1546 1549 1551
1457 1457 1458 1459 1460 1462 1463 1464 1465 1466 1466 1467 1469 1471 1473 1476 1478 1481 1485 1489 1493 1497 1500 1504 1508 1511 1514 1517 1520 1524 1527 1530 1533 1536 1539 1541 1544 1546
1450 1450 1451 1452 1453 1455 1456 1458 1460 1461 1462 1463 1465 1467 1469 1472 1474 1477 1481 1485 1489 1493 1496 1500 1504 1507 1510 1513 1517 1520 1523 1526 1529 1532 1534 1537 1539 1541
1442 1443 1443 1444 1445 1447 1449 1451 1454 1455 1457 1458 1460 1462 1465 1467 1470 1473 1477 1481 1485 1488 1492 1496 1500 1503 1506 1510 1513 1516 1519 1522 1525 1528 1530 1532 1534 1536
1434 1435 1436 1437 1438 1440 1442 1444 1447 1449 1451 1453 1455 1457 1459 1463 1466 1469 1472 1476 1480 1485 1489 1493 1496 1500 1503 1506 1509 1513 1516 1519 1522 1524 1527 1529 1531 1533
1426 1427 1428 1429 1430 1432 1434 1437 1440 1442 1446 1448 1450 1452 1455 1458 1461 1465 1468 1471 1475 1479 1485 1489 1493 1496 1500 1503 1506 1509 1513 1516 1518 1521 1523 1525 1527 1529
1419 1419 1420 1421 1423 1425 1427 1429 1432 1435 1439 1442 1445 1447 1451 1453 1456 1460 1463 1467 1472 1476 1481 1485 1489 1493 1496 1500 1503 1506 1510 1513 1515 1518 1520 1522 1525 1526
1411 1412 1412 1413 1415 1417 1420 1422 1425 1428 1433 1436 1440 1443 1446 1448 1451 1455 1458 1462 1466 1471 1475 1480 1485 1489 1493 1496 1500 1504 1507 1510 1513 1515 1518 1520 1522 1524
1404 1404 1405 1405 1407 1410 1412 1415 1418 1422 1426 1430 1434 1437 1441 1443 1446 1449 1453 1457 1461 1465 1470 1475 1480 1484 1489 1493 1497 1500 1504 1507 1510 1513 1516 1518 1520 1522
1397 1397 1398 1399 1400 1402 1405 1408 1411 1416 1420 1424 1428 1432 1435 1438 1442 1445 1448 1452 1456 1460 1464 1469 1474 1479 1484 1488 1493 1497 1501 1504 1507 1510 1513 1516 1519 1521
1391 1391 1392 1393 1394 1396 1398 1401 1406 1410 1414 1418 1422 1425 1429 1433 1436 1440 1444 1447 1451 1455 1460 1465 1469 1474 1479 1483 1488 1493 1497 1501 1505 1508 1511 1514 1517 1519
1386 1386 1387 1387 1389 1390 1393 1396 1400 1403 1407 1412 1416 1420 1424 1429 1432 1436 1440 1443 1447 1451 1455 1460 1466 1471 1475 1480 1484 1488 1493 1497 1501 1505 1509 1512 1515 1518
1381 1381 1382 1383 1384 1386 1389 1391 1395 1398 1403 1407 1412 1416 1420 1424 1427 1431 1435 1439 1443 1447 1451 1456 1461 1466 1471 1475 1480 1485 1489 1493 1497 1502 1506 1509 1513 1516
1377 1377 1377 1379 1380 1382 1385 1387 1390 1394 1399 1403 1407 1411 1415 1419 1423 1427 1431 1435 1439 1443 1447 1452 1457 1462 1467 1472 1476 1481 1485 1490 1494 1498 1502 1506 1510 1514
1373 1373 1373 1375 1376 1379 1381 1384 1387 1391 1395 1399 1403 1407 1411 1415 1419 1423 1427 1431 1435 1438 1443 1447 1452 1457 1462 1467 1472 1477 1481 1486 1490 1495 1499 1503 1507 1511
1370 1369 1370 1371 1373 1376 1378 1381 1385 1388 1392 1396 1400 1404 1408 1412 1416 1420 1424 1427 1431 1435 1439 1443 1447 1452 1456 1461 1467 1473 1477 1481 1486 1491 1495 1500 1504 1509
1366 1367 1367 1368 1370 1373 1375 1378 1382 1386 1390 1393 1397 1401 1405 1409 1413 1416 1420 1424 1427 1431 1435 1439 1443 1448 1453 1457 1463 1468 1473 1477 1482 1486 1491 1497 1502 1506
1363 1364 1365 1366 1368 1370 1373 1376 1379 1383 1387 1390 1394 1398 1402 1405 1409 1413 1417 1421 1424 1427 1431 1435 1440 1446 1450 1455 1459 1463 1468 1474 1479 1483 1488 1493 1497 1501
1361 1361 1362 1363 1365 1367 1370 1373 1377 1380 1383 1387 1391 1395 1398 1402 1406 1410 1413 1417 1420 1424 1428 1432 1437 1441 1445 1450 1454 1459 1464 1470 1475 1481 1487 1491 1494 1497
1358 1358 1359 1361 1363 1365 1368 1371 1374 1377 1380 1384 1388 1391 1395 1399 1403 1406 1410 1414 1417 1421 1425 1429 1433 1437 1441 1446 1450 1455 1461 1466 1471 1476 1483 1488 1493 1497